Location: Newark
(43.0658°N, 122.2322°W)
Time: 09:42:05
(UTC+00:00)

STARLINK-1665 - Pass Details

Date: 22 September 2020
Orbit: 548 x 550 km, 53.0° (Epoch: 24 October)

Event Time Altitude Azimuth Distance (km) Brightness Sun altitude
Exits shadow 11:18:06 19° 9° (N) 1,257 5.8 -28.5°
Drops below altitude 10° 11:20:10 10° 40° (NE) 1,717 7.0 -28.2°
Sets 11:22:46 0° 57° (ENE) 2,590 8.3 -27.8°
